カタログに戻る

STARLINK-4064

運用中通信VLEO
NORAD 52665·PAYLOAD·🇺🇸 United States

打ち上げ May 18, 2022 から Cape Canaveral Space Force Station

Loading…

次のパス (今後24時間)

TLE

最新Source: CelesTrak SupGP

元期: Sep 14, 2026, 21:18 UTC

1 52665C 22053K   26257.88798611 -.00004508  00000+0 -28270-3 0  2573
2 52665  53.1603  24.1471 0001100  80.8240 161.4343 15.08832837    15

AllMySatでSTARLINK-4064をリアルタイム追跡

Download on the App Store